Location: Bismarck
(46.7731°N, 100.8200°W)
Time: 18:19:07
(UTC-05:00)

ISS - All Passes

Search period start: 25 April 2015 00:00
Search period end: 05 May 2015 00:00
Orbit: 395 x 402 km, 51.6° (Epoch: 25 April)

Date Brightness Start Highest point End Pass type
(mag) Time Alt. Az. Time Alt. Az. Time Alt. Az.
25 Apr - 12:24:09 10° SSE 12:25:09 11° SE 12:26:15 10° ESE daylight
25 Apr - 13:57:47 10° SW 14:01:01 67° SSE 14:04:16 10° ENE daylight
25 Apr - 15:34:27 10° W 15:37:33 38° N 15:40:38 10° ENE daylight
25 Apr - 17:11:17 10° WNW 17:14:21 37° N 17:17:27 10° E daylight
25 Apr - 18:47:39 10° WNW 18:50:56 77° SSW 18:54:11 10° ESE daylight
25 Apr - 20:25:11 10° WSW 20:26:51 13° SW 20:28:25 10° SSW daylight
26 Apr - 13:03:57 10° SSW 13:06:59 38° SE 13:10:04 10° ENE daylight
26 Apr - 14:40:08 10° W 14:43:19 49° NNW 14:46:31 10° ENE daylight
26 Apr - 16:17:05 10° WNW 16:20:06 33° N 16:23:08 10° ENE daylight
26 Apr - 17:53:32 10° WNW 17:56:48 68° NNE 18:00:03 10° ESE daylight
26 Apr - 19:30:16 10° W 19:32:56 23° SW 19:35:34 10° SSE daylight
27 Apr - 12:10:26 10° SSW 12:13:00 22° SE 12:15:36 10° E daylight
27 Apr - 13:45:51 10° WSW 13:49:06 71° NNW 13:52:23 10° ENE daylight
27 Apr - 15:22:46 10° WNW 15:25:48 33° N 15:28:49 10° ENE daylight
27 Apr - 16:59:24 10° WNW 17:02:35 47° NNE 17:05:45 10° E daylight
27 Apr - 18:35:50 10° WNW 18:38:55 40° SW 18:42:00 10° SE daylight
28 Apr - 11:17:40 10° SSE 11:19:02 12° SE 11:20:29 10° ESE daylight
28 Apr - 12:51:41 10° SW 12:54:55 72° SSE 12:58:11 10° ENE daylight
28 Apr - 14:28:22 10° W 14:31:27 37° N 14:34:32 10° ENE daylight
28 Apr - 16:05:11 10° WNW 16:08:16 37° N 16:11:21 10° E daylight
28 Apr - 17:41:32 10° WNW 17:44:48 71° SSW 17:48:02 10° SE daylight
28 Apr - 19:19:18 10° WSW 19:20:41 12° SW 19:21:58 10° SSW daylight
29 Apr - 11:57:40 10° SW 12:00:45 41° SE 12:03:51 10° ENE daylight
29 Apr - 13:33:56 10° W 13:37:06 47° NNW 13:40:16 10° ENE daylight
29 Apr - 15:10:52 10° WNW 15:13:53 33° N 15:16:54 10° ENE daylight
29 Apr - 16:47:17 10° WNW 16:50:34 72° NNE 16:53:49 10° ESE daylight
29 Apr - 18:24:05 10° W 18:26:39 21° SW 18:29:10 10° S daylight
30 Apr - 11:03:59 10° SSW 11:06:37 23° SE 11:09:18 10° E daylight
30 Apr - 12:39:30 10° WSW 12:42:45 67° NNW 12:46:00 10° ENE daylight
30 Apr - 14:16:26 10° WNW 14:19:26 33° N 14:22:27 10° ENE daylight
30 Apr - 15:53:01 10° WNW 15:56:13 49° NNE 15:59:24 10° E daylight
30 Apr - 17:29:28 10° WNW 17:32:31 37° SW 17:35:33 10° SSE daylight
01 May - 10:10:55 10° SSE 10:12:30 13° SE 10:14:12 10° ESE daylight
01 May - 11:45:10 10° WSW 11:48:25 78° SSE 11:51:41 10° ENE daylight
01 May - 13:21:54 10° WNW 13:24:57 36° N 13:28:02 10° ENE daylight
01 May - 14:58:41 10° WNW 15:01:46 38° N 15:04:51 10° E daylight
01 May - 16:35:01 10° WNW 16:38:16 66° SSW 16:41:29 10° SE daylight
01 May - 18:13:06 10° WSW 18:14:07 11° SW 18:15:01 10° SSW daylight
02 May - 10:51:01 10° SW 10:54:06 44° SE 10:57:14 10° ENE daylight
02 May - 12:27:20 10° W 12:30:28 45° NNW 12:33:37 10° ENE daylight
02 May - 14:04:14 10° WNW 14:07:15 34° N 14:10:16 10° ENE daylight
02 May - 15:40:38 10° WNW 15:43:54 76° NNE 15:47:09 10° ESE daylight
02 May - 17:17:29 10° W 17:19:57 20° SW 17:22:23 10° S daylight
03 May - 09:57:08 10° SSW 09:59:50 25° SE 10:02:35 10° E daylight
03 May - 11:32:46 10° WSW 11:35:59 63° NNW 11:39:13 10° ENE daylight
03 May - 13:09:41 10° WNW 13:12:41 33° N 13:15:41 10° ENE daylight
03 May - 14:46:14 10° WNW 14:49:26 51° NNE 14:52:37 10° E daylight
03 May - 16:22:42 10° WNW 16:25:42 34° SW 16:28:41 10° SSE daylight
04 May - 09:03:48 10° S 09:05:36 14° SE 09:07:27 10° E daylight
04 May - 10:38:16 10° WSW 10:41:31 82° SSE 10:44:46 10° ENE daylight
04 May - 12:15:02 10° WNW 12:18:04 36° N 12:21:08 10° ENE daylight
04 May - 13:51:46 10° WNW 13:54:52 39° NNE 13:57:57 10° E daylight
04 May - 15:28:06 10° WNW 15:31:20 61° SSW 15:34:32 10° SE daylight
04 May - 17:06:44 10° SW 17:07:08 10° SW 17:07:25 10° SW daylight
